Regional Weather Roundup
Issued by NWS Kansas City/Pleasant Hill, MO

Home | Current Version | Previous Version | Graphics & Text | Print | Product List | Glossary Off
Versions: 1 2 3 4 5 6 7 8 9 10 11 12 13 14 15 16 17 18 19 20 21 22 23 24 25 26 27 28 29 30 31 32 33 34 35 36 37 38 39 40 41 42 43 44 45 46 47 48 49 50

000
ASUS43 KEAX 101710
RWREAX

WEATHER ROUNDUP FOR EASTERN KANSAS AND NORTHWEST MISSOURI
NATIONAL WEATHER SERVICE KANSAS CITY/PLEASANT HILL MO
1200 PM CDT THU JUL 10 2014

KSZ040-057-103>105-MOZ028-029-037-043-101800-
...KANSAS CITY METROPOLITAN AREA...

CITY           SKY/WX    TMP DP  RH WIND       PRES   REMARKS
K.C. INTL      PTSUNNY   79  65  62 S10       30.09F
K.C. DOWNTOWN  PTSUNNY   80  64  58 SE9       30.08F
LEES SUMMIT    PTSUNNY   77  64  64 SE12      30.10F
OLATHE - IXD   PTSUNNY   79  63  57 SE9       30.08F
OLATHE - OJC   PTSUNNY   77  64  64 S10       30.08F
LAWRENCE       PTSUNNY   81  65  58 SE8       30.06F

$$

MOZ001>008-011>017-020>025-030>033-038>040-044>046-053-054-101800-
...NORTHERN AND CENTRAL MISSOURI...

CITY           SKY/WX    TMP DP  RH WIND       PRES   REMARKS
ST. JOSEPH     SUNNY     80  64  58 S16       30.08S
MOSBY          PTSUNNY   77  61  57 SE7       30.09F
WHITEMAN AFB   MOSUNNY   78  57  49 SE9       30.11S
CLINTON        PTSUNNY   79  66  65 SE8       30.11S
SEDALIA        PTSUNNY   78  62  57 SE12      30.13F
WARSAW         NOT AVBL
MARSHALL         N/A     79  64  61 E10       30.14S
CHILLICOTHE      N/A     79  61  53 SE8       30.12F
MOBERLY        MOSUNNY   79  57  47 E9        30.15F
KIRKSVILLE     SUNNY     78  60  53 SE14      30.16S

$$

MOZ041-047>049-056>058-063>065-088>090-097-101800-
...EASTERN AND SOUTHERN MISSOURI...

CITY           SKY/WX    TMP DP  RH WIND       PRES   REMARKS
ST. LOUIS INTL NOT AVBL
SPIRIT OF STL  PTSUNNY   79  56  45 CALM      30.14F
COLUMBIA       PTSUNNY   77  60  55 SE8       30.15F
JEFFERSON CITY CLOUDY    76  61  59 E7        30.13F
MEXICO         MOSUNNY   79  64  61 SE6       30.16F
ROLLA          CLOUDY    76  60  57 E9        30.14F
LEBANON        PTSUNNY   79  63  57 SE8       30.14F
OSAGE BEACH    PTSUNNY   79  61  53 SE8       30.13F
SPRINGFIELD    CLOUDY    75  64  68 SE8       30.12S
BRANSON        CLOUDY    81  66  61 E6        30.14S
NEVADA         CLOUDY    75  66  73 SE5       30.10F
JOPLIN         LGT RAIN  70  66  87 E6        30.09F
WEST PLAINS    CLOUDY    75  64  68 E6        30.16S
PIEDMONT       PTSUNNY   79  64  61 CALM      30.15R
MALDEN         PTSUNNY   84  68  58 NW5       30.12S

$$

IAZ060-094-KSZ022-034>040-054-083-096-NEZ052-066-093-101800-
...KANSAS...SOUTHEAST NEBRASKA AND IOWA...

CITY           SKY/WX    TMP DP  RH WIND       PRES   REMARKS
TOPEKA         PTSUNNY   81  66  60 SE13      30.05F
MANHATTAN      SUNNY     82  64  54 SE8       30.03F
EMPORIA        MOSUNNY   79  62  56 SE13G21   30.04S
CHANUTE        LGT RAIN  74  64  71 SE8       30.05F
WICHITA        PTSUNNY   78  66  66 SE8       30.02S
OMAHA          SUNNY     81  63  54 SE17      30.03F
LINCOLN        MOSUNNY   82  66  58 S14G23    30.03F
FALLS CITY     SUNNY     81  66  60 SE16      30.05F
LAMONI         MOSUNNY   77  62  59 S8G17     30.12F
DES MOINES     PTSUNNY   80  58  46 S17G23    30.10S

$$




USA.gov is the U.S. government's official web portal to all federal, state and local government web resources and services.